Coral, MI (49322)

8:06 PM EDT on June 28, 2017 (GMT -0400)
Smits Residence | | Change Station

Elev 925 ft 43.40 °N, 85.40 °W | Updated 18 seconds ago

Rain
Rain
63.9 °F
Feels Like 63.9 °F
N
0.0
Wind Variable Wind from NNW

Today
High -- | Low -- °F
--% Chance of Precip.
Yesterday
High -- | Low -- °F
Precip. -- in
Pressure 29.88 in
Visibility 7.0 miles
Clouds Scattered Clouds 5500 ft
Mostly Cloudy 7000 ft
Overcast 8000 ft
Dew Point 60 °F
Humidity 88%
Rainfall 0.14 in
Snow Depth Not available.
6:03 AM 9:26 PM
Waxing Crescent, 30% visible
METAR KRQB 282355Z AUTO 16008KT 7SM RA SCT055 BKN070 OVC080 17/15 A2988 RMK AO2 P0013 60013 T01700148 10215 20170
Pressure 29.88 in
Visibility 7.0 miles
Clouds Scattered Clouds 5500 ft
Mostly Cloudy 7000 ft
Overcast 8000 ft
Dew Point 60 °F
Humidity 88%
Rainfall 0.14 in
Snow Depth Not available.
6:03 AM 9:26 PM
Waxing Crescent, 30% visible
METAR KRQB 282355Z AUTO 16008KT 7SM RA SCT055 BKN070 OVC080 17/15 A2988 RMK AO2 P0013 60013 T01700148 10215 20170

Get Severe Weather Alerts

Thanks for signing up!

Be on the lookout for a verification email in your inbox.

You'll start receiving the daily forecast at 6 AM.

×

10-Day Weather Forecast

Almanac

Astronomy

Jun. 28, 2017 Rise Set
Actual Time
Civil Twilight
Nautical Twilight
Astronomical Twilight
Moon
Length of Visible Light
Length of Day
Tomorrow will be .
, % of the Moon is Illuminated

Today's Extremes

State Highs State Lows

Community

WunderPhotos

Category 6

Welcome to Category 6. This is the collective home for Weather Underground's featured writeups by Dr. Jeff Masters (right), Bob Henson (left), Chris Burt, and other regular contributors.

Nearby

Air Quality

  Air Quality AQ Index Pollutant
Not available.

Snow Depth

Station Depth Elevation

Earthquake Activity

City Distance Mag. Time & Date
Minimum magnitude displayed is 2.5.

Coastal Water Temperatures

Place Temperature

Stations

Nearby Weather Stations

Station Location Temp. Windchill Dew Point Humidity Wind Precip. Elev Updated Type
                   

Watches & Warnings

There are currently no watches in effect.